State University, AR

11:01 PM CST on February 06, 2016 (GMT -0600)
Jonesboro Municipal

Weather History for KJBR - July, 2014

Change the Weather History Date:

Saturday, July 19, 2014

  Actual Average Record
Temperature  
Mean Temperature 73 °F 81 °F  
Max Temperature 82 °F 91 °F 105 °F (2012)
Min Temperature 63 °F 71 °F 58 °F (1945)
Degree Days  
Heating Degree Days 0 0  
Month to date heating degree days 0 0  
Since 1 June heating degree days 0 1  
Since 1 July heating degree days 0 0  
Cooling Degree Days 8 16  
Month to date cooling degree days 207 303  
Year to date cooling degree days 847 899  
Since 1 June cooling degree days 600 686  
Growing Degree Days 22 (Base 50)    
Moisture  
Dew Point 63 °F    
Average Humidity 74    
Maximum Humidity 93    
Minimum Humidity 54    
Precipitation  
Precipitation 0.00 in 0.10 in 1.73 in (1937)
Month to date precipitation 0.80 2.40  
Year to date precipitation 30.92 27.43  
Snow  
Snow 0.00 in 0.00 in - ()
Month to date snowfall 0.0 0.0  
Since 1 June snowfall 0.0 0.0  
Since 1 July snowfall 0.0 0.0  
Snow Depth 0.00 in    
Sea Level Pressure  
Sea Level Pressure 30.00 in    
Wind  
Wind Speed 4 mph (NNE)    
Max Wind Speed 10 mph    
Max Gust Speed 15 mph    
Visibility 10 miles    
Events      
T = Trace of Precipitation, MM = Missing Value Source: NWS Daily Summary

Daily Weather History Graph

Daily Weather History Graph

Search for Another Location

Airport or City:

Trip Planner

Search our weather history database for the weather conditions in past years. The results will help you decide how hot, cold, wet, or windy it might be!

Date:

Astronomy

Jul. 19, 2014 Rise Set
Actual Time 6:00 AM CDT 8:16 PM CDT
Civil Twilight 5:31 AM CDT 8:45 PM CDT
Nautical Twilight 4:55 AM CDT 9:21 PM CDT
Astronomical Twilight 4:16 AM CDT 10:00 PM CDT
Moon 12:29 AM CDT (7/19) 2:03 PM CDT (7/19)
Length of Visible Light 15h 14m
Length of Day
14h 16m
Last Quarter, 43% of the Moon is Illuminated
Jul 19
Last Quarter
Jul 26
New
Aug 3
First Quarter
Aug 10
Full
Aug 17
Last Quarter

Hourly Weather History & Observations

Time (CDT) Temp. Heat Index Dew Point Humidity Pressure Visibility Wind Dir Wind Speed Gust Speed Precip Events Conditions
12:53 AM 64.0 °F - 61.0 °F 90% 29.99 in 10.0 mi NNE 5.8 mph - N/A   Clear
1:53 AM 64.0 °F - 61.0 °F 90% 29.98 in 10.0 mi NNE 5.8 mph - N/A   Clear
2:53 AM 64.0 °F - 61.0 °F 90% 29.98 in 10.0 mi North 4.6 mph - N/A   Scattered Clouds
3:53 AM 64.0 °F - 61.0 °F 90% 29.98 in 10.0 mi NNE 4.6 mph - N/A   Scattered Clouds
4:01 AM 64.4 °F - 60.8 °F 88% 29.99 in 10.0 mi NNE 4.6 mph - N/A   Mostly Cloudy
4:53 AM 64.9 °F - 61.0 °F 87% 29.98 in 10.0 mi North 5.8 mph - N/A   Overcast
5:53 AM 64.9 °F - 61.0 °F 87% 29.99 in 10.0 mi NNW 5.8 mph - N/A   Overcast
6:53 AM 64.9 °F - 61.0 °F 87% 30.01 in 10.0 mi North 4.6 mph - N/A   Overcast
7:53 AM 66.9 °F - 62.1 °F 84% 30.03 in 10.0 mi Calm Calm - N/A   Overcast
8:53 AM 69.1 °F - 63.0 °F 81% 30.03 in 10.0 mi NNE 4.6 mph - N/A   Overcast
9:53 AM 72.0 °F - 63.0 °F 73% 30.03 in 10.0 mi Variable 4.6 mph - N/A   Overcast
10:10 AM 73.4 °F - 64.4 °F 73% 30.03 in 10.0 mi NNE 5.8 mph - N/A   Scattered Clouds
10:38 AM 75.2 °F - 64.4 °F 69% 30.03 in 10.0 mi NNE 6.9 mph - N/A   Mostly Cloudy
10:53 AM 75.0 °F - 64.0 °F 69% 30.02 in 10.0 mi NE 9.2 mph - N/A   Mostly Cloudy
11:23 AM 75.2 °F - 62.6 °F 65% 30.02 in 10.0 mi ENE 8.1 mph - N/A   Scattered Clouds
11:32 AM 75.2 °F - 62.6 °F 65% 30.02 in 10.0 mi NE 5.8 mph - N/A   Mostly Cloudy
11:53 AM 75.0 °F - 63.0 °F 66% 30.02 in 10.0 mi NE 6.9 mph - N/A   Overcast
12:11 PM 75.2 °F - 62.6 °F 65% 30.03 in 10.0 mi NNE 6.9 mph - N/A   Overcast
12:53 PM 77.0 °F - 63.0 °F 62% 30.02 in 10.0 mi Calm Calm - N/A   Mostly Cloudy
1:53 PM 78.1 °F - 63.0 °F 60% 30.00 in 10.0 mi Variable 4.6 mph - N/A   Mostly Cloudy
2:53 PM 80.1 °F 81.9 °F 64.9 °F 60% 30.00 in 10.0 mi ENE 8.1 mph - N/A   Overcast
3:53 PM 81.0 °F 82.5 °F 64.0 °F 56% 29.99 in 10.0 mi NE 5.8 mph - N/A   Scattered Clouds
4:53 PM 80.1 °F 81.5 °F 63.0 °F 56% 29.99 in 10.0 mi East 3.5 mph - N/A   Mostly Cloudy
5:53 PM 80.1 °F 81.7 °F 64.0 °F 58% 29.99 in 10.0 mi ENE 3.5 mph - N/A   Mostly Cloudy
6:53 PM 80.1 °F 81.2 °F 62.1 °F 54% 29.99 in 10.0 mi Calm Calm - N/A   Mostly Cloudy
7:53 PM 77.0 °F - 66.0 °F 69% 29.99 in 10.0 mi Calm Calm - N/A   Mostly Cloudy
8:53 PM 73.0 °F - 64.0 °F 73% 29.99 in 10.0 mi SSW 3.5 mph - N/A   Clear
9:53 PM 69.8 °F - 64.4 °F 83% 30.00 in 10.0 mi Calm Calm - N/A   Clear
10:53 PM 66.9 °F - 64.0 °F 90% 30.00 in 10.0 mi Calm Calm - N/A   Clear
11:53 PM 66.0 °F - 64.0 °F 93% 30.00 in 10.0 mi Calm Calm - N/A   Clear